X

Important NEWS



New Hub Active

Miami is our new hub! Old members can request transfer via hr@dlxairways.net

Thank you very much and have nice flight.


Deluxe Airways.

X

Tours



Hello again, we created one nice test tour for all pilots to attend. also this is ment to be testing of our tour system

Available Tours

If you find some issues please inform us.

Thank you very much and have nice flight.


Deluxe Airways.

 METAR AND TAF INFORMATION
ArrayMETAR FOR LQTZ
22345228 3 LQTZ 250630Z VRB02KT CAVOK 16/11 Q1019 LQTZ 2019-04-25T06:30:00Z 44.47 18.73 16.0 11.0 0 2 6.21 30.088583 VFR METAR 306.0 LQTZ 250600Z VRB02KT CAVOK 13/09 Q1019 LQTZ 2019-04-25T06:00:00Z 44.47 18.73 13.0 9.0 0 2 6.21 30.088583 VFR METAR 306.0 LQTZ 250530Z VRB02KT 9999 FEW060 11/05 Q1019 LQTZ 2019-04-25T05:30:00Z 44.47 18.73 11.0 5.0 0 2 6.21 30.088583 VFR METAR 306.0 LQTZ 250500Z VRB02KT 9999 FEW060 11/06 Q1019 LQTZ 2019-04-25T05:00:00Z 44.47 18.73 11.0 6.0 0 2 6.21 30.088583 VFR METAR 306.0

 AIRPORT MAP

 RUNWAY INFORMATION
Runway 09 Runway length 8152 ft Runway width 148 ft
Runway elevation 763 ft Runway displaced threshold 0 ft Runway heading 96
Runway 27 Runway length 8152 ft Runway width 148 ft
Runway elevation 776 ft Runway displaced threshold 0 ft Runway heading 276

 AIRPORT FREQUENCIES
Type APP Name APP/DEP Frequency 125.8 MHZ
Type ATIS Name ATIS Frequency 140.325 MHZ
Type GCCD Name GND/CLNC D Frequency 143.425 MHZ
Type OPS Name AFLD OPS Frequency 142.525 MHZ
Type PMSV Name PMSV METRO Frequency 25.892 MHZ
Type TWR Name TWR Frequency 130.85 MHZ

 AIRPORT NEAR NAVIGATION AIDS
Type NDB Name Tuzla Frequency 445 KHZ
Type TACAN Name Tuzla Frequency 109700 KHZ



Powered by Virtual Airlines Manager [v2.6.2]

Template code change by DeluxeAir